Location: Casilda
(33.0440°S, 61.1680°W)
Time: 14:31:20
(UTC-03:00)

ISS - Pass Details

Date: 26 June 2017
Orbit: 401 x 408 km, 51.6° (Epoch: 28 June)

Event Time Altitude Azimuth Distance (km) Brightness Sun altitude
Rises 20:25:03 0° 302° (WNW) 2,328 1.1 -28.1°
Reaches altitude 10° 20:27:11 10° 295° (WNW) 1,473 -0.1 -28.5°
Enters shadow 20:28:12 18° 288° (WNW) 1,088 -0.9 -28.7°
